User: anonymous   Login
Location: Unspecified
(0.0000°N, 0.0000°E)
Time: 16:03:53
(UTC+02:00)
Language:

ATLAS 2AS CENTAUR R/B - Orbit

View from above orbital plane
View from above orbital plane
View from above satellite
View from above satellite

Ground track
Ground track

The orbit data is extracted from the following two-line orbital elements,

1 28096U 03054B   17164.88139845 0.00000000  00000-0  00000-0 0    05
2 28096  63.6665  66.1396 0268715 262.3299  97.6700 13.40826638    02
Epoch (UTC): 13 June 2017 21:09:12
Eccentricity: 0.0268715
inclination: 63.6665°
perigee height: 905 km
apogee height: 1307 km
right ascension of ascending node: 66.1396°
argument of perigee: 262.3299°
revolutions per day: 13.40826638
mean anomaly at epoch: 97.6700°
orbit number at epoch: 0

The dashed part of the orbit path shows where the satellite is in the earth's shadow,  

DLR